Flag for U.S.A. Weather past 2 weeks in Inglewood, California, U.S.A.

Now
77 °F

Sunny.


Feels Like: 79 °F
Forecast: 65 / 79 °F
Wind: 13 mph from Southwest

Location: Hawthorne Municipal Airport

Current Time: Jul 28, 2015 at 3:29:45 PM

Latest Report: Jul 28, 2015 at 1:53 PM


Visibility: 10 mi

Pressure: 29.88 "Hg

Humidity: 58%

Dew point: 61 °F

Location of InglewoodLocation

Historic Weather in Inglewood — Graph

°F

Inglewood temperature yesterday

Maximum temperature yesterday: 78 °F (at 11:53 AM)
Minimum temperature yesterday: 69 °F (at 12:53 AM)
Average temperature yesterday: 73 °F

Past Weeks' High & Low Weather Summary

 TemperatureHumidityPressure
High90 °F (Jul 19, 11:53 AM)93% (Jul 20, 9:53 PM)30.08 "Hg (Jul 20, 9:53 PM)
Low65 °F (Jul 14, 4:53 AM)34% (Jul 18, 1:53 PM)29.80 "Hg (Jul 17, 4:53 PM)
Average73 °F71%29.93 "Hg
* Reported Jul 13 12:53 PM — Jul 28 12:53 PM, Inglewood, Weather by CustomWeather, © 2015

Note: Actual official high and low records may vary slightly from our data, if they occured in-between our weather recording intervals... More about our weather records

Advertising

Inglewood weather history for previous 24 hours

 ConditionsComfort  
Time TempWeatherWind HumidityBarometerVisibility
12:53 PM
Tue, Jul 28
77 °FSunny.10 mph58%29.89 "Hg10 mi
11:53 AM78 °FSunny.10 mph56%29.89 "Hg10 mi
10:53 AM78 °FSunny.3 mph54%29.90 "Hg10 mi
9:53 AM76 °FSunny.No wind58%29.90 "Hg10 mi
8:53 AM72 °FPassing clouds.3 mph68%29.91 "Hg10 mi
7:53 AM71 °FOvercast.No wind71%29.90 "Hg10 mi
6:53 AM70 °FOvercast.No wind73%29.90 "Hg10 mi
5:53 AM69 °FOvercast.No wind79%29.89 "Hg10 mi
4:53 AM69 °FOvercast.No wind79%29.88 "Hg10 mi
3:53 AM69 °FOvercast.No wind81%29.87 "Hg10 mi
2:53 AM68 °FOvercast.No wind82%29.88 "Hg10 mi
1:53 AM68 °FPassing clouds.No wind82%29.88 "Hg10 mi
12:53 AM69 °FMostly cloudy.No wind81%29.89 "Hg10 mi
11:53 PM
Mon, Jul 27
69 °FPassing clouds.5 mph81%29.90 "Hg10 mi
10:53 PM70 °FOvercast.8 mph79%29.90 "Hg10 mi
9:53 PM70 °FOvercast.6 mph81%29.90 "Hg10 mi
8:53 PM70 °FScattered clouds.5 mph81%29.88 "Hg10 mi
7:53 PM72 °FOvercast.10 mph76%29.88 "Hg10 mi
6:53 PM73 °FSunny.8 mph74%29.86 "Hg10 mi
5:53 PM76 °FSunny.10 mph60%29.86 "Hg10 mi
4:53 PM76 °FSunny.13 mph58%29.87 "Hg10 mi
3:53 PM77 °FSunny.13 mph56%29.88 "Hg10 mi
Weather by CustomWeather, © 2015

See weather overviewHow to use our weather pages